Raton, NM

12:15 AM MDT on August 20, 2017 (GMT -0600)
Raton Municipal-Crews

Weather History for KRTN - January, 2012

Change the Weather History Date:

Thursday, January 5, 2012

  Actual Average (KTAD) Record (KTAD)
Temperature  
Mean Temperature 44 °F -  
Max Temperature 63 °F 45 °F 69 °F (1956)
Min Temperature 24 °F 16 °F -16 °F (1971)
Degree Days  
Heating Degree Days 22    
Moisture  
Dew Point 14 °F    
Average Humidity 44    
Maximum Humidity 69    
Minimum Humidity 11    
Precipitation  
Precipitation 0.00 in - - ()
Sea Level Pressure  
Sea Level Pressure 30.14 in    
Wind  
Wind Speed 7 mph (NE)    
Max Wind Speed 10 mph    
Max Gust Speed -    
Visibility 10 miles    
Events      
Averages and records for this station are not official NWS values.
T = Trace of Precipitation, MM = Missing Value Source: NWS Daily Summary

Daily Weather History Graph

Daily Weather History Graph

Search for Another Location

Airport or City:

Trip Planner

Search our weather history database for the weather conditions in past years. The results will help you decide how hot, cold, wet, or windy it might be!

Date:

Astronomy

Jan. 05, 2012 Rise Set
Actual Time 7:11 AM MST 4:55 PM MST
Civil Twilight 6:42 AM MST 5:24 PM MST
Nautical Twilight 6:10 AM MST 5:56 PM MST
Astronomical Twilight 5:38 AM MST 6:28 PM MST
Moon 2:01 PM MST (1/5) 3:58 AM MST (1/5)
Length of Visible Light 10h 42m
Length of Day
9h 44m
Waxing Gibbous, 88% of the Moon is Illuminated
Jan 5
Waxing Gibbous
Jan 9
Full
Jan 16
Last Quarter
Jan 23
New
Jan 30
First Quarter

Hourly Weather History & Observations

Time (MST) Temp. Windchill Dew Point Humidity Pressure Visibility Wind Dir Wind Speed Gust Speed Precip Events Conditions
12:53 AM 27.0 °F 21.6 °F 17.1 °F 66% 30.31 in 10.0 mi NE 4.6 mph - N/A   Clear
1:53 AM 25.0 °F 19.3 °F 15.1 °F 66% 30.32 in 10.0 mi NNW 4.6 mph - N/A   Clear
2:53 AM 25.0 °F 17.1 °F 16.0 °F 69% 30.32 in 10.0 mi NE 6.9 mph - N/A   Clear
3:53 AM 27.0 °F 17.3 °F 15.1 °F 61% 30.30 in 10.0 mi ENE 10.4 mph - N/A   Clear
4:53 AM 24.1 °F 13.7 °F 15.1 °F 69% 30.34 in 10.0 mi ENE 10.4 mph - N/A   Clear
5:53 AM 25.0 °F 15.5 °F 15.1 °F 66% 30.35 in 10.0 mi NE 9.2 mph - N/A   Clear
6:53 AM 24.1 °F 17.0 °F 12.9 °F 62% 30.37 in 10.0 mi NE 5.8 mph - N/A   Clear
7:53 AM 28.9 °F 21.9 °F 14.0 °F 54% 30.34 in 10.0 mi NE 6.9 mph - N/A   Clear
8:53 AM 34.0 °F 26.6 °F 17.1 °F 50% 30.33 in 10.0 mi ENE 9.2 mph - N/A   Clear
9:53 AM 46.9 °F - 19.0 °F 33% 30.26 in 10.0 mi ENE 8.1 mph - N/A   Clear
10:53 AM 54.0 °F - 17.1 °F 23% 30.18 in 10.0 mi ENE 6.9 mph - N/A   Clear
11:53 AM 60.1 °F - 8.1 °F 13% 30.10 in 10.0 mi Variable 3.5 mph - N/A   Clear
12:53 PM 62.1 °F - 6.1 °F 11% 30.03 in 10.0 mi South 4.6 mph - N/A   Clear
1:53 PM 63.0 °F - 6.1 °F 11% 30.00 in 10.0 mi South 6.9 mph - N/A   Clear
2:53 PM 62.1 °F - 7.0 °F 11% 29.99 in 10.0 mi SSW 8.1 mph - N/A   Clear
3:53 PM 60.1 °F - 10.0 °F 14% 29.97 in 10.0 mi South 5.8 mph - N/A   Clear
4:53 PM 52.0 °F - 12.9 °F 21% 30.01 in 10.0 mi West 3.5 mph - N/A   Clear
5:53 PM 42.1 °F 37.1 °F 12.9 °F 31% 30.03 in 10.0 mi NNW 8.1 mph - N/A   Clear
6:53 PM 37.9 °F 32.7 °F 16.0 °F 41% 30.05 in 10.0 mi NNW 6.9 mph - N/A   Clear
7:53 PM 36.0 °F 31.1 °F 17.1 °F 46% 30.02 in 10.0 mi NE 5.8 mph - N/A   Clear
8:53 PM 33.1 °F 28.7 °F 17.1 °F 52% 30.00 in 10.0 mi ENE 4.6 mph - N/A   Clear
9:53 PM 30.9 °F 23.5 °F 18.0 °F 59% 29.94 in 10.0 mi NE 8.1 mph - N/A   Clear
10:53 PM 30.9 °F 26.2 °F 18.0 °F 59% 29.89 in 10.0 mi ENE 4.6 mph - N/A   Clear
11:53 PM 28.9 °F 21.1 °F 18.0 °F 64% 29.86 in 10.0 mi ENE 8.1 mph - N/A   Clear